This demonstration page uses our WeatherBlox Daily Observations layout. Learn more.

Left ArrowRight Arrow

Hourly Observations for December 27, 2021

Temp ( °F °C ) Dew Point ( °F °C ) Humidity (%) Winds ( mph kmh ) Pressure ( in mb ) Visibility ( mi km ) Precip ( " mm )
12:56 am 00:56 undefined 36 2.2 36 2.1 99 99 WNW 6 9 29.64 1004 7 11 0.00 0.00
1:56 am 01:56 Clear with Mist and Fog 34 0.9 33 0.8 99 99 Calm 29.68 1005 4 6 0.00 0.00
2:56 am 02:56 Clear 32 -0.2 30 -1.2 93 93 NW 3 6 29.71 1006 10 16 0.00 0.00
3:56 am 03:56 Clear 34 0.9 25 -3.8 71 71 NW 7 11 29.72 1006 10 16 0.00 0.00
4:56 am 04:56 Clear 38 3.4 20 -6.6 48 48 NW 13 20 29.75 1007 10 16 0.00 0.00
5:56 am 05:56 Clear 36 2.3 20 -6.8 51 51 NNW 14 22 29.81 1010 10 16 0.00 0.00
6:56 am 06:56 Clear 33 0.5 20 -6.6 59 59 NW 15 24 29.84 1011 10 16 0.00 0.00
7:56 am 07:56 Sunny 30 -1.3 19 -7 66 66 WNW 7 11 29.92 1013 10 16 0.00 0.00
8:56 am 08:56 Sunny 30 -1.2 15 -9.3 55 55 NW 17 28 29.96 1014 10 16 0.00 0.00
9:56 am 09:56 Sunny 28 -2.1 11 -11.7 48 48 NW 9 15 29.97 1015 9 14 0.00 0.00
10:56 am 10:56 Sunny 29 -1.8 11 -11.6 48 48 NW 13 20 30.00 1016 9 14 0.00 0.00
11:56 am 11:56 Sunny 29 -1.5 10 -12.2 44 44 WNW 7 11 30.00 1016 7 11 0.00 0.00
12:56 pm 12:56 Partly Cloudy 30 -1 9 -12.6 41 41 WSW 5 7 29.97 1015 9 14 0.00 0.00
1:56 pm 13:56 Mostly Cloudy 31 -0.4 9 -12.7 39 39 W 8 13 29.96 1015 9 14 0.00 0.00
2:56 pm 14:56 Mostly Cloudy 31 -0.5 10 -12.2 41 41 SW 5 7 29.96 1014 9 14 0.00 0.00
3:56 pm 15:56 Mostly Cloudy 31 -0.7 11 -11.7 44 44 WSW 3 6 29.94 1014 9 14 0.00 0.00
4:56 pm 16:56 Mostly Cloudy 30 -1 11 -11.4 46 46 S 5 7 29.93 1014 10 16 0.00 0.00
5:56 pm 17:56 Cloudy 29 -1.8 12 -11.1 49 49 SE 3 6 29.92 1013 10 16 0.00 0.00
6:56 pm 18:56 Cloudy 28 -2.2 13 -10.7 53 53 Calm 29.91 1013 10 16 0.00 0.00
7:56 pm 19:56 Mostly Cloudy 28 -2.1 13 -10.6 53 53 Calm 29.89 1012 10 16 0.00 0.00
8:56 pm 20:56 Mostly Cloudy 28 -2.4 14 -10 56 56 ENE 5 7 29.87 1012 10 16 0.00 0.00
9:56 pm 21:56 Mostly Cloudy 28 -2.4 14 -10 56 56 Calm 29.85 1011 10 16 0.00 0.00
10:56 pm 22:56 Mostly Cloudy 28 -2.3 16 -9 60 60 Calm 29.82 1010 10 16 0.00 0.00
11:56 pm 23:56 Cloudy 29 -1.7 17 -8.2 62 62 E 6 9 29.79 1009 10 16 0.00 0.00

Powered by AerisWeather